Regional Weather Roundup
Issued by NWS

Home | Current Version | Previous Version | Text Only | Print | Product List | Glossary On
Versions: 1 2 3 4 5 6 7 8 9 10 11 12 13 14 15 16 17 18 19 20 21 22 23 24 25 26 27 28 29 30 31 32 33 34 35 36 37 38 39 40 41 42 43 44 45 46 47 48 49 50
000
ASUS44 KLIX 230414
RWRLA
LOUISIANA WEATHER ROUNDUP
NATIONAL WEATHER SERVICE NEW ORLEANS LA
1100 PM CDT FRI SEP 22 2017

NOTE: "FAIR" INDICATES FEW OR NO CLOUDS BELOW 12,000 FEET WITH NO
      SIGNIFICANT WEATHER AND/OR OBSTRUCTIONS TO VISIBILITY.
      SKY/WX - SKY CONDITION AND SIGNIFICANT WEATHER.
      TMP - AIR TEMPERATURE.    DP   - DEWPOINT TEMPERATURE.
      RH  - RELATIVE HUMIDITY.  PRES - PRESSURE.
      HX  - HEAT INDEX.         WCI  - WIND CHILL INDEX.

*  THESE STATIONS ARE NOT NWS OR FAA STATIONS AND ARE NOT UNDER
   NWS QUALITY CONTROL.

LAZ040-048-061>063-065-066-069-230500-
SOUTHEAST LOUISIANA

CITY           SKY/WX    TMP DP  RH WIND       PRES   REMARKS
N.O. INTL ARPT CLOUDY    81  75  82 SE3       29.94F
N.O. LAKEFRONT NOT AVBL
N.O. DOWNTOWN* NOT AVBL
RESERVE*       LGT RAIN  79  75  89 NE8       29.96R
SLIDELL        NOT AVBL
BATON ROUGE    CLEAR     77  72  84 W3        29.94
BOOTHVILLE     CLEAR     80  76  87 CALM      29.94S
BELLE CHASSE   PTCLDY    75  75 100 CALM      29.95R FOG
BOGALUSA*      FAIR      76  71  86 CALM      29.98S
GALLIANO*      CLEAR     73  70  90 CALM      29.94S FOG
NEW ROADS*     FAIR      76  71  85 CALM      29.95S
GONZALES*      FAIR      76  72  86 CALM      29.94S
HAMMOND*       MOCLDY    79  70  73 E6        29.95F
HOUMA*         NOT AVBL
PORT FOURCHON* MOCLDY    82  73  74 E5        29.94S

$$

LAZ041-044-053-054-230500-
SOUTHWEST LOUISIANA

CITY           SKY/WX    TMP DP  RH WIND       PRES   REMARKS
LAKE CHARLES   NOT AVBL
LAFAYETTE      NOT AVBL
PATTERSON      NOT AVBL
SALT POINT       N/A     76  75  97 CALM      29.93R
NEW IBERIA     NOT AVBL
CHENAULT AIRPK LGT RAIN  76  74  93 SE3       29.94S

$$

LAZ027-028-230500-
CENTRAL LOUISIANA

CITY           SKY/WX    TMP DP  RH WIND       PRES   REMARKS
FORT POLK      NOT AVBL
ALEXANDRIA INT NOT AVBL
ALEXANDRIA     NOT AVBL

$$

LAZ001-002-230500-
NORTHWEST LOUISIANA

CITY           SKY/WX    TMP DP  RH WIND       PRES   REMARKS
SHREVEPORT     NOT AVBL
BARKSDALE AFB  CLEAR     75  71  87 CALM      29.94S
DTN SHREVEPORT CLEAR     76  70  82 CALM      29.95R

$$

LAZ014-016-230500-
NORTHEAST LOUISIANA

CITY           SKY/WX    TMP DP  RH WIND       PRES   REMARKS
MONROE         PTCLDY    75  73  93 CALM      29.96S
TALLULAH       CLEAR     73  72  96 CALM      29.96S

$$




USA.gov is the U.S. government's official web portal to all federal, state and local government web resources and services.